(263455) = 2003 HV2 = 2008 ER14

Discovered at Kitt Peak on 2008-03-01 by Spacewatch.

Orbit

Orbit type: Main Belt

Note: WebGL enabled browser required.

epoch2024-03-31.0
epoch JD2460400.5
perihelion date2019-06-16.99160
perihelion JD2458651.49160
argument of perihelion (°)92.25284
ascending node (°)165.63464
inclination (°)1.77584
eccentricity0.0956230
perihelion distance (AU)2.7072246
Tisserand w.r.t. Jupiter3.2
ΔV w.r.t. Earth (km/sec)10.3
semimajor axis (AU)2.9934692
mean anomaly (°)332.83867
mean daily motion (°/day)0.19030140
aphelion distance (AU)3.280
period (years)5.18
P-vector [x]-0.20971320
P-vector [y]-0.90894730
P-vector [z]-0.36032649
Q-vector [x]0.97773271
Q-vector [y]-0.19204956
Q-vector [z]-0.08459141
absolute magnitude16.92
phase slope0.15
uncertainty0
referenceE2024-GD4
observations used284
oppositions14
arc length (days)7658
first opposition used2003
last opposition used2024
residual rms (arc-secs)0.67
perturbers coarse indicatorM-v
perturbers precise indicator003Ek
first observation date used2003-04-22.0
last observation date used2024-04-09.0
computer nameMPCLINUX
JD of orbit computation2456847.661997
perihelion JD uncertainty (days)2.6595E-04
argument of perihelion uncertainty (°)2.4555E-04
ascending node uncertainty (°)2.3999E-04
inclination uncertainty (°)9.5331E-06
eccentricity uncertainty 6.8617E-08
perihelion distance uncertainty (AU)1.9645E-07
Minimum Orbit Intersection Distances (in AU)
for orbit epoch: 2460400.5, reference: E2024-GD4
Mercury2.24281
Venus1.98155
Earth1.69272
Mars1.18062
Jupiter1.75403
Saturn5.76683
Uranus15.3958
Neptune26.5965

Observations

282 total observations over interval: 2003 04 22.60679 – 2023 02 12.332619
These data are available for download (format description).

Date (UT) J2000 RA J2000 Dec Magn Location Ref
2003 04 22.60679 13 36 24.34 -08 04 36.4 19.9 R 413 – Siding Spring Observatory MPS 78477
2003 04 22.61124 13 36 24.10 -08 04 34.9   413 – Siding Spring Observatory MPS 78477
2003 04 25.22127 13 34 25.24 -07 52 06.8 21.5 V 691 – Steward Observatory, Kitt Peak-Spacewatch MPS 247633
2003 04 25.24880 13 34 23.93 -07 51 59.1 21.1 V 691 – Steward Observatory, Kitt Peak-Spacewatch MPS 247633
2003 04 25.27549 13 34 22.67 -07 51 51.9 21.2 V 691 – Steward Observatory, Kitt Peak-Spacewatch MPS 247633
2003 05 05.22535 13 27 20.99 -07 07 54.2 21.6 V 691 – Steward Observatory, Kitt Peak-Spacewatch MPS 247633
2003 05 05.25117 13 27 19.91 -07 07 47.8 21.8 V 691 – Steward Observatory, Kitt Peak-Spacewatch MPS 247633
2003 05 05.28343 13 27 18.67 -07 07 39.7 21.8 V 691 – Steward Observatory, Kitt Peak-Spacewatch MPS 247633
2005 10 01.36637 02 47 32.42 +14 15 59.0 21.6 V G96 – Mt. Lemmon Survey MPS 247633
2005 10 01.37330 02 47 32.20 +14 15 58.8 22.3 V G96 – Mt. Lemmon Survey MPS 247633
2005 10 01.38023 02 47 31.95 +14 15 56.2 22.0 V G96 – Mt. Lemmon Survey MPS 247633
2005 10 01.38716 02 47 31.81 +14 15 55.8 21.4 V G96 – Mt. Lemmon Survey MPS 247633
2005 11 04.15982 02 23 35.62 +12 05 50.6 21.0 V 691 – Steward Observatory, Kitt Peak-Spacewatch MPS 247633
2005 11 04.17716 02 23 34.81 +12 05 46.0 21.1 V 691 – Steward Observatory, Kitt Peak-Spacewatch MPS 247633
2005 11 04.20845 02 23 33.29 +12 05 37.8 21.5 V 691 – Steward Observatory, Kitt Peak-Spacewatch MPS 247633
2008 03 01.38069 12 50 06.76 -04 33 49.6 20.9 V 691 – Steward Observatory, Kitt Peak-Spacewatch MPS 242328
2008 03 01.39832 12 50 06.28 -04 33 46.2 20.8 V 691 – Steward Observatory, Kitt Peak-Spacewatch MPS 242328
2008 03 01.41595 12 50 05.78 -04 33 41.6 20.9 V 691 – Steward Observatory, Kitt Peak-Spacewatch MPS 242328
2008 03 05.35497 12 48 12.40 -04 18 51.4   691 – Steward Observatory, Kitt Peak-Spacewatch MPS 242328
2008 03 05.37264 12 48 11.82 -04 18 47.5   691 – Steward Observatory, Kitt Peak-Spacewatch MPS 242328
2008 03 05.39029 12 48 11.24 -04 18 43.6   691 – Steward Observatory, Kitt Peak-Spacewatch MPS 242328
2008 03 26.30288 12 34 18.48 -02 35 51.6 20.7 V G96 – Mt. Lemmon Survey MPS 244135
2008 03 26.31048 12 34 18.15 -02 35 48.8 20.1 V G96 – Mt. Lemmon Survey MPS 244135
2008 03 26.31806 12 34 17.79 -02 35 47.1 20.8 V G96 – Mt. Lemmon Survey MPS 244135
2008 03 26.32568 12 34 17.40 -02 35 44.3 20.6 V G96 – Mt. Lemmon Survey MPS 244135
2008 04 03.24329 12 28 15.96 -01 52 24.4 20.6 V G96 – Mt. Lemmon Survey MPS 245830
2008 04 03.24934 12 28 15.67 -01 52 22.1 20.7 V G96 – Mt. Lemmon Survey MPS 245830
2008 04 03.25526 12 28 15.34 -01 52 20.5 20.6 V G96 – Mt. Lemmon Survey MPS 245830
2008 04 03.26125 12 28 15.06 -01 52 18.2 20.9 V G96 – Mt. Lemmon Survey MPS 245830
2008 04 24.21196 12 14 28.17 -00 14 38.7 21.1 V G96 – Mt. Lemmon Survey MPS 247781
2008 04 24.21753 12 14 27.99 -00 14 37.7 21.3 V G96 – Mt. Lemmon Survey MPS 247781
2008 04 24.22307 12 14 27.81 -00 14 36.7 21.8 V G96 – Mt. Lemmon Survey MPS 247781
2008 04 24.22861 12 14 27.63 -00 14 35.1 21.6 V G96 – Mt. Lemmon Survey MPS 247781
2010 10 03.515323 01 44 02.267 +09 08 15.57 21.57 r F51 – Pan-STARRS 1, Haleakala MPS 365728
2010 10 03.526759 01 44 01.778 +09 08 12.72 21.45 r F51 – Pan-STARRS 1, Haleakala MPS 365728
2010 10 09.35839 01 39 45.93 +08 40 43.8 21.2 V G96 – Mt. Lemmon Survey MPS 351378
2010 10 09.36524 01 39 45.61 +08 40 41.7 20.6 V G96 – Mt. Lemmon Survey MPS 351378
2010 10 09.37220 01 39 45.28 +08 40 40.0 20.9 V G96 – Mt. Lemmon Survey MPS 351378
2010 10 09.37911 01 39 45.00 +08 40 37.8 20.7 V G96 – Mt. Lemmon Survey MPS 351378
2010 10 12.469218 01 37 23.594 +08 25 36.80 21.63 w F51 – Pan-STARRS 1, Haleakala MPS 365728
2010 10 12.486012 01 37 22.778 +08 25 31.65 21.59 w F51 – Pan-STARRS 1, Haleakala MPS 365728
2010 10 12.501532 01 37 22.041 +08 25 27.15 21.77 w F51 – Pan-STARRS 1, Haleakala MPS 365728
2010 10 12.516895 01 37 21.312 +08 25 22.54 21.68 w F51 – Pan-STARRS 1, Haleakala MPS 365728
2010 11 08.24387 01 17 58.09 +06 24 19.6 21.2 V G96 – Mt. Lemmon Survey MPS 355492
2010 11 08.25142 01 17 57.80 +06 24 17.5 21.4 V G96 – Mt. Lemmon Survey MPS 355492
2010 11 08.25892 01 17 57.51 +06 24 16.2 21.5 V G96 – Mt. Lemmon Survey MPS 355492
2010 11 08.26642 01 17 57.19 +06 24 14.3 22.2 V G96 – Mt. Lemmon Survey MPS 355492
2013 02 18.39010 11 42 31.01 +01 57 11.3 21.6 V 691 – Steward Observatory, Kitt Peak-Spacewatch MPS 457187
2013 02 18.40777 11 42 30.37 +01 57 16.4 21.3 V 691 – Steward Observatory, Kitt Peak-Spacewatch MPS 457187
2013 02 18.42542 11 42 29.72 +01 57 20.4 21.0 V 691 – Steward Observatory, Kitt Peak-Spacewatch MPS 457187
2013 03 13.30432 11 26 27.88 +03 54 11.7 20.4 V G96 – Mt. Lemmon Survey MPS 460407
2013 03 13.31021 11 26 27.56 +03 54 13.6 20.3 V G96 – Mt. Lemmon Survey MPS 460407
2013 03 13.31608 11 26 27.31 +03 54 15.2 20.5 V G96 – Mt. Lemmon Survey MPS 460407
2013 03 13.32196 11 26 26.98 +03 54 17.2 20.5 V G96 – Mt. Lemmon Survey MPS 460407
2014 06 27.39072 18 17 18.729 -20 41 48.03 20.5 g F51 – Pan-STARRS 1, Haleakala MPS 521120
2014 06 27.40612 18 17 17.921 -20 41 48.52 20.5 g F51 – Pan-STARRS 1, Haleakala MPS 521120
2014 06 27.42140 18 17 17.092 -20 41 49.16 20.7 g F51 – Pan-STARRS 1, Haleakala MPS 521120
2015 09 11.46564 00 57 41.895 +05 10 33.89 21.4 w F51 – Pan-STARRS 1, Haleakala MPS 628311
2015 09 11.47765 00 57 41.461 +05 10 30.95 21.3 w F51 – Pan-STARRS 1, Haleakala MPS 628311
2015 09 11.48973 00 57 41.022 +05 10 27.70 21.3 w F51 – Pan-STARRS 1, Haleakala MPS 628311
2015 09 18.38858 00 53 22.99 +04 39 08.9 21.1 V G96 – Mt. Lemmon Survey MPS 631441
2015 09 18.39369 00 53 22.77 +04 39 07.3 21.2 V G96 – Mt. Lemmon Survey MPS 631441
2015 09 18.39881 00 53 22.55 +04 39 06.0 21.1 V G96 – Mt. Lemmon Survey MPS 631441
2015 09 18.40391 00 53 22.35 +04 39 04.2   G96 – Mt. Lemmon Survey MPS 631441
2015 10 01.31305 00 44 02.67 +03 32 51.5 21.1 V G96 – Mt. Lemmon Survey MPS 630753
2015 10 01.31903 00 44 02.32 +03 32 49.8 21.1 V G96 – Mt. Lemmon Survey MPS 630753
2015 10 01.32501 00 44 02.14 +03 32 47.4 20.8 V G96 – Mt. Lemmon Survey MPS 630753
2015 10 01.33098 00 44 01.81 +03 32 46.3 20.4 V G96 – Mt. Lemmon Survey MPS 630753
2015 10 08.32356 00 38 44.07 +02 55 47.6 20.9 V G96 – Mt. Lemmon Survey MPS 630753
2015 10 08.32813 00 38 43.83 +02 55 46.3 20.9 V G96 – Mt. Lemmon Survey MPS 630753
2015 10 08.33270 00 38 43.61 +02 55 44.4 22.0 V G96 – Mt. Lemmon Survey MPS 630753
2015 10 08.33727 00 38 43.41 +02 55 43.0 21.1 V G96 – Mt. Lemmon Survey MPS 630753
2015 10 10.34156 00 37 13.777 +02 45 20.39 21.1 w F51 – Pan-STARRS 1, Haleakala MPS 634924
2015 10 10.35346 00 37 13.235 +02 45 16.82 21.1 w F51 – Pan-STARRS 1, Haleakala MPS 634924
2015 10 10.36545 00 37 12.675 +02 45 13.10 21.1 w F51 – Pan-STARRS 1, Haleakala MPS 634924
2015 10 10.37746 00 37 12.115 +02 45 09.41 20.9 w F51 – Pan-STARRS 1, Haleakala MPS 634924
2015 10 12.35958 00 35 44.592 +02 35 03.30 21.2 w F51 – Pan-STARRS 1, Haleakala MPS 634924
2015 10 12.37200 00 35 44.014 +02 34 59.51 21.3 w F51 – Pan-STARRS 1, Haleakala MPS 634924
2015 10 12.40585 00 35 42.491 +02 34 49.29 21.1 w F51 – Pan-STARRS 1, Haleakala MPS 634924
2015 10 12.41828 00 35 41.923 +02 34 45.61 21.1 w F51 – Pan-STARRS 1, Haleakala MPS 634924
2015 10 13.36235 00 35 00.872 +02 30 01.47 21.0 w F51 – Pan-STARRS 1, Haleakala MPS 634924
2015 10 13.37449 00 35 00.340 +02 29 57.50 21.1 w F51 – Pan-STARRS 1, Haleakala MPS 634924
2015 10 13.39875 00 34 59.239 +02 29 50.58 21.2 w F51 – Pan-STARRS 1, Haleakala MPS 634924
2015 11 01.30353 00 23 28.204 +01 11 02.91 21.7 w F51 – Pan-STARRS 1, Haleakala MPS 644716
2015 11 01.31548 00 23 27.857 +01 11 00.69 21.6 w F51 – Pan-STARRS 1, Haleakala MPS 644716
2015 11 01.32743 00 23 27.501 +01 10 58.61 21.6 w F51 – Pan-STARRS 1, Haleakala MPS 644716
2015 11 02.32787 00 23 00.225 +01 07 54.50 21.6 w F51 – Pan-STARRS 1, Haleakala MPS 644716
2015 11 02.33975 00 22 59.883 +01 07 52.31 21.7 w F51 – Pan-STARRS 1, Haleakala MPS 644716
2015 11 02.35158 00 22 59.546 +01 07 49.97 21.5 w F51 – Pan-STARRS 1, Haleakala MPS 644716
2016 12 27.28564 05 18 39.69 +20 37 03.2 21.3 V G96 – Mt. Lemmon Survey MPS 755538
